Location: Hermaringen
(48.5952°N, 10.2585°E)
Time: 14:04:07
(UTC+00:00)

A-11 Canister half - Pass Details

Date: 20 February 2026
Orbit: 1513 x 1687 km, 47.2° (Epoch: 11 March)

Event Time Altitude Azimuth Distance (km) Brightness Sun altitude
Rises 02:17:46 0° 290° (WNW) 4,880 - -39.1°
Reaches altitude 10° 02:21:15 10° 283° (WNW) 3,867 - -38.6°
Maximum altitude 02:29:50 36° 222° (SW) 2,332 - -37.4°
Exits shadow 02:37:33 12° 162° (SSE) 3,579 10.8 -36.3°
Drops below altitude 10° 02:38:07 10° 160° (SSE) 3,732 10.9 -36.2°
Sets 02:41:27 0° 152° (SSE) 4,692 11.6 -35.7°
